FENGYUN 3C

Satellite information

Favourite Embed

Satellite Type and Status

PAYLOADIN ORBIT

Key statistics

Satellite FENGYUN 3C at a glance.

Uptime

4464

Days in orbit

Revolutions

≈ 14.2

Per day

Orbit

SSO

Sun Synchronous Orbit

Inclination

98.5

Latest

Satellite identification and parameters

Extended collection of information and parameters for FENGYUN 3C.

Object identification

Identified? True

Debris? False

Object name: FENGYUN 3C

International designator: 2013-052A

Object number (NORAD): 39260

Object ID (CCSDS): 39260

Country: PEOPLES REPUBLIC OF CHINA (PRC)

Current information (Y/N): Y

RCS size: LARGE

Orbital parameters

Period: 101.717 minutes

Inclination: 98.4762 deg

SMA: 7218.082 km

Apoapsis: 850.244 km

Periapsis: 829.65 km

RAAN: 323.9533 deg

Eccentricy: 0.00142654

Argument of periapsis: 197.4732 deg

Mean anomaly: 162.5954 deg

Mean motion: 14.15696054 rev/day

Mean motion (dot): 0.00000186 rev/day2

B* drag term: 0.00011597189 1/REarth

Two-line elements (TLE)

Creation date: Dec. 12, 2025, 10:14 a.m.

Reference frame: TEME

Reference center: EARTH

Epoch: Dec. 12, 2025, 5:59 a.m. UTC

TLE line 0: 0 FENGYUN 3C

TLE line 1: 1 39260U 13052A 25346.24996275 .00000186 00000-0 11597-3 0 9996

TLE line 2: 2 39260 98.4762 323.9533 0014265 197.4732 162.5954 14.15696054632113

Live tracking on map

Real-time ground track for satellite FENGYUN 3C.

In-orbit conjunctions

There are no conjunctions computed for FENGYUN 3C, at the moment. Check back to stay up to date, as we update our databases every day.

Go to all conjunctions

Associated space launch

FENGYUN 3C was lifted into orbit during the mission ‘Long March 4C | Fengyun-3C’, on board a Long March 4C space rocket.

The launch took place on Sept. 23, 2013, 3:07 a.m. from Launch Complex 9.

For more information about the launch, click the button.

Launch to space Long March 4C | Fengyun-3C
Long March 4C | Fengyun-3C

Agency: N/A

Status: Launch Successful

Launch date: Sept. 23, 2013, 3:07 a.m. UTC

Rocket: Long March 4C

Launch pad: Launch Complex 9

Location: Taiyuan Satellite Launch Center, People's Republic of China

...

Latest news about this satellite

There are no fresh news available about this satellite. Check back as we update our databases every day.


Newsletter sign-up

Weekly statistics, charts and insights to help you stay on top of the space industry.